When you browse on this site, cookies collect data to enhance your experience and personalize the content and advertising you see.
Visit our Privacy Policy to learn more. By continuing to use the site, you agree to this use of cookies and data.
  • In France
  • List of Countries
  • For 7 days
  • Water Temperature
  • Satellite Maps
  • Weather Map
  • Weather Widgets
  • user-avatar
    Login

    Hourly Weather Hamar

    Today, 12 December, Wednesday

    Time Temperature Precipitation Wind Pressure Humidity
    00:00 -4°C° 0 mm 3 mps 590 mmHg 74%
    01:00 -4°C° 0 mm 3 mps 590 mmHg 75%
    02:00 -4°C° 0 mm 3 mps 591 mmHg 76%
    03:00 -4°C° 0 mm 3 mps 591 mmHg 77%
    04:00 -5°C° 0 mm 3 mps 591 mmHg 76%
    05:00 -5°C° 0 mm 3 mps 591 mmHg 76%
    06:00 -5°C° 0 mm 3 mps 591 mmHg 76%
    07:00 -4°C° 0 mm 3 mps 591 mmHg 73%
    08:00 -4°C° 0 mm 3 mps 592 mmHg 70%
    09:00 -2°C° 0 mm 3 mps 592 mmHg 67%
    10:00 -1°C° 0.1 mm 3 mps 592 mmHg 67%
    11:00 -1°C° 0.1 mm 3 mps 592 mmHg 67%
    12:00 0°C° 0.1 mm 3 mps 592 mmHg 67%
    13:00 0°C° 0.7 mm 3 mps 591 mmHg 69%
    14:00 0°C° 0.7 mm 3 mps 591 mmHg 72%
    15:00 0°C° 0.7 mm 3 mps 590 mmHg 74%
    16:00 -1°C° 0.6 mm 3 mps 590 mmHg 75%
    17:00 -1°C° 0.6 mm 3 mps 590 mmHg 75%
    18:00 -2°C° 0.6 mm 3 mps 590 mmHg 76%
    19:00 -2°C° 0.4 mm 3 mps 590 mmHg 76%
    20:00 -2°C° 0.4 mm 3 mps 590 mmHg 77%
    21:00 -2°C° 0.4 mm 3 mps 590 mmHg 77%
    22:00 -2°C° 0.3 mm 3 mps 590 mmHg 77%
    23:00 -2°C° 0.3 mm 3 mps 590 mmHg 78%

    Tomorrow, 13 December, Thursday

    Time Temperature Precipitation Wind Pressure Humidity
    00:00 -2°C° 0.3 mm 3 mps 590 mmHg 78%
    01:00 -2°C° 0 mm 3 mps 590 mmHg 78%
    02:00 -4°C° 0 mm 3 mps 590 mmHg 79%
    03:00 -4°C° 0 mm 3 mps 590 mmHg 79%
    04:00 -5°C° 0 mm 3 mps 590 mmHg 79%
    05:00 -5°C° 0 mm 3 mps 590 mmHg 79%
    06:00 -6°C° 0 mm 3 mps 589 mmHg 79%
    07:00 -6°C° 0 mm 3 mps 590 mmHg 77%
    08:00 -5°C° 0 mm 3 mps 590 mmHg 75%
    09:00 -5°C° 0 mm 3 mps 591 mmHg 74%
    10:00 -4°C° 0.1 mm 3 mps 591 mmHg 74%
    11:00 -4°C° 0.1 mm 3 mps 592 mmHg 74%
    12:00 -2°C° 0.1 mm 3 mps 592 mmHg 75%
    13:00 -4°C° 0.2 mm 3 mps 592 mmHg 76%
    14:00 -4°C° 0.2 mm 3 mps 592 mmHg 77%
    15:00 -4°C° 0.2 mm 3 mps 593 mmHg 79%
    16:00 -4°C° 0.1 mm 2 mps 593 mmHg 80%
    17:00 -5°C° 0.1 mm 2 mps 593 mmHg 82%
    18:00 -6°C° 0.1 mm 2 mps 593 mmHg 84%
    19:00 -6°C° 0 mm 2 mps 593 mmHg 82%
    20:00 -7°C° 0 mm 2 mps 593 mmHg 80%
    21:00 -8°C° 0 mm 2 mps 593 mmHg 78%
    22:00 -8°C° 0 mm 2 mps 593 mmHg 74%
    23:00 -9°C° 0 mm 2 mps 593 mmHg 71%

    Day after tomorrow, 14 December, Friday

    Time Temperature Precipitation Wind Pressure Humidity
    00:00 -9°C° 0 mm 2 mps 593 mmHg 67%
    01:00 -9°C° 0 mm 2 mps 594 mmHg 66%
    02:00 -10°C° 0 mm 2 mps 594 mmHg 65%
    03:00 -10°C° 0 mm 2 mps 594 mmHg 64%
    04:00 -10°C° 0 mm 2 mps 594 mmHg 65%
    05:00 -10°C° 0 mm 2 mps 594 mmHg 65%
    06:00 -10°C° 0 mm 2 mps 594 mmHg 65%
    07:00 -10°C° 0 mm 2 mps 595 mmHg 64%
    08:00 -9°C° 0 mm 2 mps 596 mmHg 64%
    09:00 -8°C° 0 mm 2 mps 596 mmHg 63%
    10:00 -7°C° 0 mm 2 mps 597 mmHg 61%
    11:00 -6°C° 0 mm 2 mps 597 mmHg 60%
    12:00 -5°C° 0 mm 2 mps 597 mmHg 58%
    13:00 -5°C° 0 mm 2 mps 597 mmHg 59%
    14:00 -6°C° 0 mm 2 mps 597 mmHg 60%
    15:00 -6°C° 0 mm 2 mps 597 mmHg 60%
    16:00 -7°C° 0 mm 2 mps 596 mmHg 62%
    17:00 -8°C° 0 mm 2 mps 596 mmHg 64%
    18:00 -9°C° 0 mm 2 mps 596 mmHg 66%
    19:00 -9°C° 0 mm 2 mps 596 mmHg 67%
    20:00 -9°C° 0 mm 2 mps 596 mmHg 67%
    21:00 -9°C° 0 mm 2 mps 596 mmHg 68%
    22:00 -10°C° 0 mm 2 mps 596 mmHg 68%
    23:00 -10°C° 0 mm 2 mps 596 mmHg 69%

    15 December, Saturday

    Time Temperature Precipitation Wind Pressure Humidity
    00:00 -10°C° 0 mm 2 mps 596 mmHg 69%
    01:00 -12°C° 0 mm 2 mps 596 mmHg 69%
    02:00 -12°C° 0 mm 2 mps 596 mmHg 69%
    03:00 -13°C° 0 mm 2 mps 595 mmHg 69%
    04:00 -13°C° 0 mm 2 mps 595 mmHg 67%
    05:00 -13°C° 0 mm 2 mps 596 mmHg 65%
    06:00 -13°C° 0 mm 2 mps 596 mmHg 63%
    07:00 -12°C° 0 mm 2 mps 596 mmHg 60%
    08:00 -10°C° 0 mm 2 mps 597 mmHg 58%
    09:00 -8°C° 0 mm 1 mps 598 mmHg 55%
    10:00 -7°C° 0 mm 1 mps 598 mmHg 52%
    11:00 -6°C° 0 mm 1 mps 598 mmHg 48%
    12:00 -3°C° 0 mm 1 mps 599 mmHg 45%
    13:00 -4°C° 0 mm 1 mps 599 mmHg 47%
    14:00 -4°C° 0 mm 1 mps 598 mmHg 49%
    15:00 -4°C° 0 mm 1 mps 598 mmHg 51%
    16:00 -6°C° 0 mm 1 mps 598 mmHg 50%
    17:00 -8°C° 0 mm 1 mps 598 mmHg 49%
    18:00 -10°C° 0 mm 2 mps 597 mmHg 48%
    19:00 -10°C° 0 mm 2 mps 597 mmHg 46%
    20:00 -10°C° 0 mm 2 mps 597 mmHg 44%
    21:00 -10°C° 0 mm 2 mps 598 mmHg 42%
    22:00 -10°C° 0 mm 2 mps 598 mmHg 43%
    23:00 -10°C° 0 mm 2 mps 598 mmHg 44%

    16 December, Sunday

    Time Temperature Precipitation Wind Pressure Humidity
    00:00 -10°C° 0 mm 2 mps 598 mmHg 44%
    01:00 -9°C° 0 mm 2 mps 598 mmHg 45%
    02:00 -9°C° 0 mm 2 mps 598 mmHg 46%
    03:00 -9°C° 0 mm 2 mps 598 mmHg 47%
    04:00 -9°C° 0 mm 2 mps 598 mmHg 48%
    05:00 -8°C° 0 mm 2 mps 598 mmHg 48%
    06:00 -8°C° 0 mm 2 mps 598 mmHg 48%
    07:00 -7°C° 0 mm 2 mps 598 mmHg 48%
    08:00 -6°C° 0 mm 2 mps 599 mmHg 49%
    09:00 -5°C° 0 mm 2 mps 600 mmHg 49%
    10:00 -4°C° 0 mm 2 mps 600 mmHg 48%
    11:00 -3°C° 0 mm 2 mps 600 mmHg 48%
    12:00 -2°C° 0 mm 2 mps 600 mmHg 48%
    13:00 -2°C° 0 mm 2 mps 600 mmHg 50%
    14:00 -3°C° 0 mm 2 mps 599 mmHg 53%
    15:00 -1°C° 0 mm 1 mps 599 mmHg 55%
    16:00 -4°C° 0 mm 2 mps 599 mmHg 53%
    17:00 -6°C° 0 mm 2 mps 598 mmHg 51%
    18:00 -7°C° 0 mm 2 mps 598 mmHg 50%
    19:00 -7°C° 0 mm 2 mps 598 mmHg 50%
    20:00 -7°C° 0 mm 2 mps 597 mmHg 50%
    21:00 -7°C° 0 mm 2 mps 597 mmHg 50%
    22:00 -7°C° 0 mm 2 mps 597 mmHg 51%
    23:00 -7°C° 0 mm 2 mps 597 mmHg 53%

    17 December, Monday

    Time Temperature Precipitation Wind Pressure Humidity
    00:00 -7°C° 0 mm 2 mps 597 mmHg 55%
    01:00 -7°C° 0 mm 2 mps 597 mmHg 56%
    02:00 -7°C° 0 mm 2 mps 597 mmHg 57%
    03:00 -7°C° 0 mm 2 mps 597 mmHg 58%
    04:00 -7°C° 0 mm 2 mps 596 mmHg 59%
    05:00 -7°C° 0 mm 2 mps 596 mmHg 60%
    06:00 -7°C° 0 mm 2 mps 596 mmHg 61%
    07:00 -4°C° 0 mm 1 mps 597 mmHg 61%
    08:00 -3°C° 0 mm 1 mps 597 mmHg 61%
    09:00 -2°C° 0 mm 1 mps 598 mmHg 61%
    10:00 -1°C° 0 mm 1 mps 598 mmHg 60%
    11:00 0°C° 0 mm 1 mps 598 mmHg 58%
    12:00 +1°C° 0 mm 1 mps 598 mmHg 57%
    13:00 0°C° 0 mm 1 mps 598 mmHg 59%
    14:00 0°C° 0 mm 1 mps 597 mmHg 62%
    15:00 0°C° 0 mm 1 mps 597 mmHg 64%
    16:00 -2°C° 0 mm 1 mps 597 mmHg 65%
    17:00 -3°C° 0 mm 1 mps 596 mmHg 65%
    18:00 -4°C° 0 mm 1 mps 596 mmHg 66%
    19:00 -6°C° 0 mm 2 mps 596 mmHg 64%
    20:00 -6°C° 0 mm 2 mps 596 mmHg 61%
    21:00 -6°C° 0 mm 2 mps 596 mmHg 59%
    22:00 -6°C° 0 mm 2 mps 596 mmHg 59%
    23:00 -7°C° 0 mm 2 mps 596 mmHg 59%
    Show more